Fort Knox, KY

1:36 AM EST on December 06, 2019 (GMT -0500)
Godman Army Air Field

Weather History for KFTK - October, 2019

Change the Weather History Date:

Tuesday, October 1, 2019

  Actual Average Record
Temperature  
Mean Temperature 80 °F -  
Max Temperature 95 °F 72 °F 95 °F (2019)
Min Temperature 66 °F 49 °F 39 °F (2003)
Cooling Degree Days 16    
Growing Degree Days 30 (Base 50)    
Moisture  
Dew Point 64 °F    
Average Humidity 62    
Maximum Humidity 100    
Minimum Humidity 34    
Precipitation  
Precipitation 0.00 in - - ()
Sea Level Pressure  
Sea Level Pressure 30.06 in    
Wind  
Wind Speed 3 mph (SW)    
Max Wind Speed 13 mph    
Max Gust Speed 22 mph    
Visibility 10 miles    
Events      
Averages and records for this station are not official NWS values.
T = Trace of Precipitation, MM = Missing Value Source: NWS Daily Summary

Daily Weather History Graph

Daily Weather History Graph

Search for Another Location

Airport or City:

Astronomy

Oct. 01, 2019 Rise Set
Actual Time 7:39 AM EDT 7:27 PM EDT
Civil Twilight 7:13 AM EDT 7:53 PM EDT
Nautical Twilight 6:42 AM EDT 8:23 PM EDT
Astronomical Twilight 6:11 AM EDT 8:54 PM EDT
Moon 10:51 AM EDT (10/1) 9:43 PM EDT (10/1)
Length of Visible Light 12h 40m
Length of Day
11h 47m
Waxing Crescent, 12% of the Moon is Illuminated
Oct 1
Waxing Crescent
Oct 5
First Quarter
Oct 13
Full
Oct 21
Last Quarter
Oct 27
New

Hourly Weather History & Observations

Time (EDT) Temp. Heat Index Dew Point Humidity Pressure Visibility Wind Dir Wind Speed Gust Speed Precip Events Conditions
12:56 AM 70.2 °F - 65.1 °F 84% 30.07 in 10.0 mi Calm Calm - N/A   Clear
1:56 AM 69.4 °F - 65.1 °F 86% 30.06 in 10.0 mi Calm Calm - N/A   Clear
2:56 AM 69.8 °F - 65.1 °F 85% 30.06 in 10.0 mi Calm Calm - N/A   Clear
3:56 AM 68.5 °F - 65.5 °F 90% 30.06 in 10.0 mi Calm Calm - N/A   Clear
4:56 AM 67.3 °F - 65.8 °F 95% 30.07 in 10.0 mi Calm Calm - N/A   Clear
5:56 AM 66.4 °F - 66.4 °F 100% 30.08 in 10.0 mi Calm Calm - N/A   Clear
6:53 AM 66.2 °F - 66.2 °F 100% 30.10 in 10.0 mi Calm Calm - N/A   Clear
6:56 AM 66.0 °F - 66.0 °F 100% 30.10 in 10.0 mi Calm Calm - N/A   Clear
7:56 AM 66.2 °F - 66.2 °F 100% 30.12 in 10.0 mi Calm Calm - N/A   Clear
8:56 AM 72.5 °F - 66.6 °F 82% 30.12 in 10.0 mi Calm Calm - N/A   Clear
9:56 AM 80.8 °F 83.2 °F 66.9 °F 63% 30.12 in 10.0 mi Calm Calm - N/A   Clear
10:56 AM 87.3 °F 89.5 °F 66.2 °F 49% 30.12 in 10.0 mi SSW 3.5 mph - N/A   Clear
11:52 AM 89.6 °F 92.2 °F 66.2 °F 46% 30.10 in 10.0 mi SW 5.8 mph - N/A   Clear
11:56 AM 90.7 °F 93.6 °F 66.4 °F 45% 30.10 in 10.0 mi SW 3.5 mph - N/A   Clear
12:56 PM 91.4 °F 93.2 °F 64.4 °F 41% 30.09 in 10.0 mi SW 11.5 mph - N/A   Mostly Cloudy
1:37 PM 93.2 °F 94.9 °F 64.4 °F 38% 30.07 in 10.0 mi South 11.5 mph 19.6 mph N/A   Partly Cloudy
1:40 PM 93.2 °F 94.1 °F 62.6 °F 36% 30.08 in 10.0 mi SSW 12.7 mph 21.9 mph N/A   Scattered Clouds
1:56 PM 91.8 °F 92.6 °F 63.1 °F 38% 30.07 in 10.0 mi SW 10.4 mph 16.1 mph N/A   Scattered Clouds
2:46 PM 95.0 °F 96.0 °F 62.6 °F 34% 30.05 in 10.0 mi WSW 10.4 mph - N/A   Clear
2:56 PM 94.3 °F 95.8 °F 63.1 °F 36% 30.05 in 10.0 mi SW 6.9 mph 16.1 mph N/A   Clear
3:56 PM 91.6 °F 92.0 °F 62.2 °F 37% 30.04 in 10.0 mi WSW 5.8 mph - N/A   Scattered Clouds
4:48 PM 93.2 °F 93.3 °F 60.8 °F 34% 30.02 in 10.0 mi WSW 9.2 mph - N/A   Clear
4:56 PM 94.3 °F 94.9 °F 61.5 °F 34% 30.02 in 10.0 mi West 8.1 mph - N/A   Clear
5:56 PM 93.2 °F 93.3 °F 61.3 °F 34% 30.02 in 10.0 mi SW 9.2 mph - N/A   Clear
6:56 PM 89.6 °F 90.1 °F 62.1 °F 40% 30.01 in 10.0 mi WSW 5.8 mph - N/A   Clear
7:56 PM 80.6 °F 82.2 °F 63.9 °F 57% 30.01 in 10.0 mi Calm Calm - N/A   Clear
8:56 PM 76.5 °F - 64.2 °F 66% 30.00 in 10.0 mi Calm Calm - N/A   Clear
9:56 PM 74.8 °F - 63.5 °F 68% 30.01 in 10.0 mi Calm Calm - N/A   Clear
10:56 PM 72.9 °F - 64.0 °F 74% 30.00 in 10.0 mi Calm Calm - N/A   Clear
11:56 PM 70.7 °F - 63.9 °F 79% 30.00 in 10.0 mi Calm Calm - N/A   Clear